Elefsis, Greece

10:45 AM EEST on March 28, 2017 (GMT +0300)
Elefsis Air Base

Weather History for LGEL - March, 2014

Change the Weather History Date:

Monday, March 10, 2014

  Actual Average Record
Temperature  
Mean Temperature 48 °F -  
Max Temperature 51 °F 61 °F 66 °F (2002)
Min Temperature 46 °F 45 °F 28 °F (2011)
Degree Days  
Heating Degree Days 16    
Moisture  
Dew Point 39 °F    
Average Humidity 69    
Maximum Humidity 82    
Minimum Humidity 62    
Precipitation  
Precipitation 0.00 in - - ()
Sea Level Pressure  
Sea Level Pressure 29.98 in    
Wind  
Wind Speed 10 mph ()    
Max Wind Speed 21 mph    
Max Gust Speed 33 mph    
Visibility 6.2 miles    
Events      
Averages and records for this station are not official NWS values.
T = Trace of Precipitation, MM = Missing Value Source: Averaged Metar Reports

Daily Weather History Graph

Daily Weather History Graph

Search for Another Location

Airport or City:

Trip Planner

Search our weather history database for the weather conditions in past years. The results will help you decide how hot, cold, wet, or windy it might be!

Date:

Astronomy

Mar. 10, 2014 Rise Set
Actual Time 6:44 AM EET 6:27 PM EET
Civil Twilight 6:18 AM EET 6:54 PM EET
Nautical Twilight 5:48 AM EET 7:24 PM EET
Astronomical Twilight 5:17 AM EET 7:55 PM EET
Moon 12:59 PM EET (3/10) 2:38 AM EET (3/10)
Length of Visible Light 12h 35m
Length of Day
11h 42m
Waxing Gibbous, 67% of the Moon is Illuminated
Mar 10
Waxing Gibbous
Mar 16
Full
Mar 24
Last Quarter
Mar 30
New
Apr 7
First Quarter

Hourly Weather History & Observations

Time (EET) Temp. Windchill Dew Point Humidity Pressure Visibility Wind Dir Wind Speed Gust Speed Precip Events Conditions
12:50 AM 48.2 °F - 37.4 °F 66% 30.04 in 6.2 mi NNW 4.6 mph - N/A   Mostly Cloudy
1:50 AM 48.2 °F - 37.4 °F 66% 30.04 in 6.2 mi North 6.9 mph - N/A   Mostly Cloudy
2:50 AM 48.2 °F - 35.6 °F 62% 30.01 in 6.2 mi North 9.2 mph - N/A   Mostly Cloudy
3:50 AM 48.2 °F - 37.4 °F 66% 30.01 in 6.2 mi NNW 9.2 mph - N/A   Mostly Cloudy
4:50 AM 48.2 °F - 42.8 °F 82% 30.01 in 6.2 mi NW 8.1 mph - N/A   Mostly Cloudy
5:20 AM 48.2 °F - 42.8 °F 82% 30.01 in 6.2 mi NW 6.9 mph - N/A   Mostly Cloudy
5:50 AM 46.4 °F 42.9 °F 37.4 °F 71% 30.01 in 6.2 mi NNW 6.9 mph - N/A   Mostly Cloudy
6:20 AM 46.4 °F 42.4 °F 37.4 °F 71% 30.01 in 6.2 mi NNW 8.1 mph - N/A   Mostly Cloudy
6:50 AM 46.4 °F 41.9 °F 39.2 °F 76% 29.98 in 6.2 mi NNW 9.2 mph - N/A   Mostly Cloudy
7:20 AM 46.4 °F 41.9 °F 39.2 °F 76% 29.98 in 6.2 mi NNW 9.2 mph - N/A   Mostly Cloudy
7:50 AM 46.4 °F 42.9 °F 39.2 °F 76% 30.01 in 6.2 mi NW 6.9 mph - N/A   Mostly Cloudy
8:20 AM 46.4 °F 42.4 °F 39.2 °F 76% 30.01 in 6.2 mi NW 8.1 mph - N/A   Mostly Cloudy
8:50 AM 46.4 °F 41.9 °F 39.2 °F 76% 30.01 in 6.2 mi NNW 9.2 mph - N/A   Mostly Cloudy
9:20 AM 48.2 °F - 39.2 °F 71% 30.01 in 6.2 mi NNW 13.8 mph - N/A   Mostly Cloudy
9:50 AM 48.2 °F - 39.2 °F 71% 30.01 in 6.2 mi NW 11.5 mph - N/A   Mostly Cloudy
10:20 AM 48.2 °F - 39.2 °F 71% 30.01 in 6.2 mi NW 16.1 mph 27.6 mph N/A   Mostly Cloudy
10:50 AM 48.2 °F - 39.2 °F 71% 29.98 in 6.2 mi NW 17.3 mph 28.8 mph N/A   Mostly Cloudy
11:20 AM 48.2 °F - 39.2 °F 71% 29.98 in 6.2 mi NW 12.7 mph 24.2 mph N/A   Mostly Cloudy
11:50 AM 50.0 °F - 37.4 °F 62% 29.98 in 6.2 mi NW 17.3 mph 31.1 mph N/A   Mostly Cloudy
12:20 PM 50.0 °F - 37.4 °F 62% 29.98 in 6.2 mi NNW 17.3 mph 28.8 mph N/A   Mostly Cloudy
12:50 PM 51.8 °F - 39.2 °F 62% 29.98 in 6.2 mi NW 16.1 mph 31.1 mph N/A   Mostly Cloudy
1:20 PM 51.8 °F - 39.2 °F 62% 29.98 in 6.2 mi NW 15.0 mph 26.5 mph N/A   Mostly Cloudy
1:50 PM 51.8 °F - 39.2 °F 62% 29.95 in 6.2 mi NNW 12.7 mph 25.3 mph N/A   Mostly Cloudy
2:20 PM 51.8 °F - 39.2 °F 62% 29.95 in 6.2 mi NW 16.1 mph 27.6 mph N/A   Mostly Cloudy
2:50 PM 51.8 °F - 39.2 °F 62% 29.95 in 6.2 mi NW 19.6 mph 31.1 mph N/A   Mostly Cloudy
3:20 PM 51.8 °F - 39.2 °F 62% 29.95 in 6.2 mi NNW 17.3 mph 28.8 mph N/A   Mostly Cloudy
3:50 PM 50.0 °F - 37.4 °F 62% 29.95 in 6.2 mi NNW 20.7 mph 33.4 mph N/A   Mostly Cloudy
4:20 PM 50.0 °F - 37.4 °F 62% 29.95 in 6.2 mi NNW 17.3 mph - N/A   Mostly Cloudy
4:50 PM 48.2 °F - 39.2 °F 71% 29.95 in 6.2 mi NW 18.4 mph - N/A   Mostly Cloudy
5:20 PM 48.2 °F - 39.2 °F 71% 29.95 in 6.2 mi NNW 20.7 mph - N/A   Mostly Cloudy
5:50 PM 48.2 °F - 39.2 °F 71% 29.95 in 6.2 mi NNW 17.3 mph - N/A   Mostly Cloudy
6:20 PM 48.2 °F - 39.2 °F 71% 29.95 in 6.2 mi NNW 15.0 mph - N/A   Mostly Cloudy
6:50 PM 48.2 °F - 39.2 °F 71% 29.95 in 6.2 mi NNW 15.0 mph - N/A   Mostly Cloudy
7:20 PM 48.2 °F - 39.2 °F 71% 29.95 in 6.2 mi NNW 15.0 mph - N/A   Mostly Cloudy
7:50 PM 48.2 °F - 39.2 °F 71% 29.98 in 6.2 mi NW 13.8 mph - N/A   Mostly Cloudy
8:20 PM 48.2 °F - 39.2 °F 71% 29.98 in 6.2 mi NW 12.7 mph - N/A   Mostly Cloudy
8:50 PM 48.2 °F - 39.2 °F 71% 29.98 in 6.2 mi NW 10.4 mph - N/A   Mostly Cloudy
9:20 PM 48.2 °F - 39.2 °F 71% 29.98 in 6.2 mi NW 9.2 mph - N/A   Mostly Cloudy
9:50 PM 46.4 °F 42.4 °F 37.4 °F 71% 30.01 in 6.2 mi NW 8.1 mph - N/A   Mostly Cloudy
10:20 PM 46.4 °F 42.9 °F 37.4 °F 71% 29.98 in 6.2 mi NW 6.9 mph - N/A   Mostly Cloudy
10:50 PM 46.4 °F 42.9 °F 37.4 °F 71% 30.01 in 6.2 mi NNW 6.9 mph - N/A   Mostly Cloudy
11:50 PM 46.4 °F 42.4 °F 37.4 °F 71% 30.01 in 6.2 mi NW 8.1 mph - N/A   Mostly Cloudy